This demonstration page uses our WeatherBlox Daily Observations layout. Learn more.

Hourly Observations for January 23, 2016

Temp ( °F °C ) Dew Point ( °F °C ) Humidity (%) Winds ( mph kmh ) Pressure ( in mb ) Visibility ( mi km ) Precip ( " mm )
12:15 am 00:15 Cloudy 23 -5 21 -6 93 93 S 12 19 30.3 1026 10 16.09344 0 0
12:35 am 00:35 Cloudy 23 -5 21 -6 93 93 SSW 10 17 30.36 1028 10 16.09344 0 0
12:55 am 00:55 Cloudy 25 -4 23 -5 93 93 SSW 9 15 30.33 1027 10 16.09344 0 0
1:15 am 01:15 Cloudy 23 -5 21 -6 93 93 S 12 19 30.3 1026 10 16.09344 0 0
1:35 am 01:35 Cloudy 23 -5 21 -6 93 93 S 12 19 30.3 1026 10 16.09344 0 0
1:55 am 01:55 Cloudy 23 -5 21 -6 93 93 SSW 13 20 30.27 1025 10 16.09344 0 0
2:15 am 02:15 Cloudy 23 -5 23 -5 100 100 SSW 16 26 30.27 1025 10 16.09344 0 0
2:35 am 02:35 Cloudy 23 -5 23 -5 100 100 SSW 13 20 30.27 1025 7 11.265408 0 0
2:55 am 02:55 Cloudy with Mist and Fog 23 -5 23 -5 100 100 SSW 12 19 30.27 1025 4 6.437376 0 0
3:15 am 03:15 Cloudy with Mist and Fog 23 -5 23 -5 100 100 S 13 20 30.27 1025 2 3.218688 0 0
3:35 am 03:35 Cloudy with Mist and Fog 23 -5 23 -5 100 100 SSW 14 22 30.24 1024 1.25 2.01168 0 0
3:55 am 03:55 Cloudy with Mist and Fog 23 -5 23 -5 100 100 S 10 17 30.24 1024 1 1.609344 0 0
4:15 am 04:15 Cloudy with Mist and Fog 25 -4 23 -5 93 93 S 10 17 30.24 1024 0.75 1.207008 0 0
4:35 am 04:35 Cloudy with Mist and Fog 25 -4 23 -5 93 93 S 10 17 30.24 1024 0.75 1.207008 0 0
4:55 am 04:55 Cloudy with Mist and Fog 25 -4 23 -5 93 93 SSW 13 20 30.24 1024 1 1.609344 0 0
5:15 am 05:15 Cloudy with Mist and Fog 23 -5 23 -5 100 100 S 12 19 30.24 1024 1.25 2.01168 0 0
5:35 am 05:35 Cloudy with Mist and Fog 25 -4 23 -5 93 93 S 10 17 30.21 1023 1.25 2.01168 0 0
5:55 am 05:55 Cloudy with Mist and Fog 25 -4 23 -5 93 93 SSW 13 20 30.24 1024 1.25 2.01168 0 0
6:15 am 06:15 Cloudy with Mist and Fog 25 -4 23 -5 93 93 SSW 13 20 30.21 1023 1.25 2.01168 0 0
6:35 am 06:35 Cloudy with Mist and Fog 25 -4 23 -5 93 93 S 12 19 30.21 1023 0.75 1.207008 0 0
6:55 am 06:55 Cloudy with Mist and Fog 25 -4 23 -5 93 93 SSW 12 19 30.21 1023 1.25 2.01168 0 0
7:15 am 07:15 Cloudy with Mist and Fog 25 -4 23 -5 93 93 S 12 19 30.21 1023 1.5 2.414016 0 0
7:35 am 07:35 Cloudy with Mist and Fog 25 -4 23 -5 93 93 S 10 17 30.21 1023 1 1.609344 0 0
7:55 am 07:55 Cloudy with Mist and Fog 25 -4 23 -5 93 93 S 9 15 30.21 1023 1 1.609344 0 0
8:15 am 08:15 Cloudy with Freezing Fog 25 -4 23 -5 93 93 S 10 17 30.18 1022 0.5 0.804672 0 0
8:35 am 08:35 Cloudy with Freezing Fog 25 -4 23 -5 93 93 S 10 17 30.18 1022 0.5 0.804672 0 0
8:55 am 08:55 Cloudy with Freezing Fog 25 -4 23 -5 93 93 S 12 19 30.18 1022 0.5 0.804672 0 0
9:15 am 09:15 Cloudy with Freezing Fog 25 -4 25 -4 100 100 S 12 19 30.18 1022 0.5 0.804672 0 0
9:35 am 09:35 Cloudy with Freezing Fog 25 -4 25 -4 100 100 S 10 17 30.18 1022 0.25 0.402336 0 0
9:55 am 09:55 Cloudy with Freezing Fog 27 -3 25 -4 93 93 S 10 17 30.15 1021 0.25 0.402336 0 0
10:15 am 10:15 Cloudy with Freezing Fog 27 -3 25 -4 93 93 S 10 17 30.12 1020 0.5 0.804672 0 0
10:35 am 10:35 Cloudy with Freezing Fog 27 -3 25 -4 93 93 SSW 12 19 30.15 1021 0.5 0.804672 0 0
10:55 am 10:55 Cloudy with Freezing Fog 27 -3 27 -3 100 100 SSW 10 17 30.12 1020 0.5 0.804672 0 0
11:15 am 11:15 Cloudy with Mist and Fog 27 -3 27 -3 100 100 SSW 8 13 30.12 1020 1.5 2.414016 0 0
11:35 am 11:35 Cloudy with Mist and Fog 28 -2 27 -3 93 93 SSW 9 15 30.12 1020 3 4.828032 0 0
11:55 am 11:55 Cloudy with Mist and Fog 28 -2 27 -3 93 93 SSW 13 20 30.09 1019 4 6.437376 0 0
12:15 pm 12:15 Cloudy with Mist and Fog 28 -2 27 -3 93 93 SW 7 11 30.09 1019 5 8.04672 0 0
12:35 pm 12:35 Cloudy 28 -2 27 -3 93 93 SW 9 15 30.09 1019 7 11.265408 0 0
12:55 pm 12:55 Cloudy 28 -2 28 -2 100 100 SSW 10 17 30.06 1018 7 11.265408 0 0
1:15 pm 13:15 Cloudy 28 -2 28 -2 100 100 SSW 9 15 30.06 1018 7 11.265408 0 0
1:35 pm 13:35 Cloudy 30 -1 28 -2 93 93 SSW 8 13 30.06 1018 7 11.265408 0 0
1:55 pm 13:55 Cloudy 30 -1 28 -2 93 93 SSW 9 15 30 1016 10 16.09344 0 0
2:15 pm 14:15 Cloudy 30 -1 28 -2 93 93 SSW 10 17 30 1016 10 16.09344 0 0
2:35 pm 14:35 Mostly Cloudy 30 -1 28 -2 93 93 SSW 10 17 29.97 1015 10 16.09344 0 0
2:55 pm 14:55 Partly Cloudy 32 0 28 -2 87 87 S 9 15 29.97 1015 10 16.09344 0 0
3:15 pm 15:15 Sunny 30 -1 28 -2 93 93 S 8 13 29.97 1015 10 16.09344 0 0
3:35 pm 15:35 Sunny 32 0 28 -2 87 87 S 8 13 29.97 1015 10 16.09344 0 0
3:55 pm 15:55 Sunny 32 0 28 -2 87 87 S 7 11 29.97 1015 10 16.09344 0 0
4:15 pm 16:15 Sunny 32 0 28 -2 87 87 S 8 13 29.97 1015 10 16.09344 0 0
4:35 pm 16:35 Sunny 32 0 28 -2 87 87 S 6 9 29.97 1015 10 16.09344 0 0
4:55 pm 16:55 Sunny 32 0 28 -2 87 87 S 5 7 29.97 1015 10 16.09344 0 0
5:15 pm 17:15 Sunny 32 0 28 -2 87 87 S 7 11 29.97 1015 10 16.09344 0 0
5:35 pm 17:35 Sunny 32 0 28 -2 87 87 S 9 15 29.97 1015 10 16.09344 0 0
5:55 pm 17:55 Clear 32 0 28 -2 87 87 S 7 11 29.97 1015 10 16.09344 0 0
6:15 pm 18:15 Clear 32 0 28 -2 87 87 S 8 13 29.97 1015 10 16.09344 0 0
6:35 pm 18:35 Clear 30 -1 28 -2 93 93 S 6 9 29.97 1015 10 16.09344 0 0
6:55 pm 18:55 Clear 30 -1 27 -3 86 86 S 7 11 30 1016 10 16.09344 0 0
7:15 pm 19:15 Clear 30 -1 27 -3 86 86 S 7 11 30 1016 10 16.09344 0 0
7:35 pm 19:35 Clear 28 -2 27 -3 93 93 S 7 11 30 1016 10 16.09344 0 0
7:55 pm 19:55 Clear 28 -2 27 -3 93 93 S 7 11 30.03 1017 10 16.09344 0 0
8:15 pm 20:15 Clear 28 -2 27 -3 93 93 S 7 11 30 1016 10 16.09344 0 0
8:35 pm 20:35 Clear 28 -2 27 -3 93 93 S 8 13 30 1016 10 16.09344 0 0
8:55 pm 20:55 Clear 28 -2 27 -3 93 93 S 8 13 30 1016 10 16.09344 0 0
9:15 pm 21:15 Clear 28 -2 27 -3 93 93 S 7 11 30 1016 10 16.09344 0 0
9:35 pm 21:35 Clear 28 -2 27 -3 93 93 S 6 9 30 1016 10 16.09344 0 0
9:55 pm 21:55 Clear 28 -2 27 -3 93 93 S 6 9 30 1016 10 16.09344 0 0
10:15 pm 22:15 Clear 28 -2 27 -3 93 93 SSW 5 7 30 1016 10 16.09344 0 0
10:35 pm 22:35 Clear 28 -2 27 -3 93 93 Calm 30 1016 10 16.09344 0 0
10:55 pm 22:55 Clear 28 -2 27 -3 93 93 S 3 6 29.97 1015 7 11.265408 0 0
11:15 pm 23:15 Clear 28 -2 27 -3 93 93 S 5 7 29.97 1015 7 11.265408 0 0
11:35 pm 23:35 Clear 28 -2 25 -4 86 86 S 5 7 29.97 1015 7 11.265408 0 0
11:55 pm 23:55 Clear 27 -3 25 -4 93 93 Calm 29.97 1015 7 11.265408 0 0

Powered by AerisWeather